Location: *
(11.7485°N, 79.7483°E)
Time: 10:59:37
(UTC+00:00)

Fermi - Pass Details

Date: 22 January 2021
Orbit: 523 x 540 km, 25.6° (Epoch: 24 February)

Event Time Altitude Azimuth Distance (km) Brightness Sun altitude
Exits shadow 00:09:57 23° 298° (WNW) 1,170 4.9 -13.8°
Maximum altitude 00:12:28 81° 22° (NNE) 540 3.7 -13.2°
Drops below altitude 10° 00:16:36 10° 112° (ESE) 1,780 7.9 -12.3°
Sets 00:18:52 0° 113° (ESE) 2,672 9.5 -11.7°
